sat.trackr.live / text

‹ back to catalog

ONEWEB-0058

NORAD 45161 · 2020-008AG

PAYLOAD ACTIVE UNKNOWN

§ Identity

Operator
Country
UK
Launch date
2020-02-06
Launch site
TYMSC
Launch vehicle
Mass (kg)
RCS (m²)

Purposes: comms

External: N2YO · Heavens-Above · Gunter

§ Orbital elements

Epoch: 2026-05-25T03:37:01.713792Z

Period
109.89 min
Inclination
87.8855°
Eccentricity
0.0001703
Mean motion
13.10375759 rev/d
Perigee alt
1,220.4 km
Apogee alt
1,223.0 km
Semi-major
7,599.8 km
B*
1.4276e-3
RAAN
40.8653°
Arg perigee
72.4712°
Mean anomaly
287.6601°
Rev number
30,540

§ Raw data

ONEWEB-00581 45161U 20008AG  26145.15071428  .00000511  00000+0  14276-2 0  99912 45161  87.8855  40.8653 0001703  72.4712 287.6601 13.10375759305403

JSON: /api/v1/satellites/45161 · /tle

For live sub-satellite position, see the globe view (requires WebGL).

§ Visibility from observer

Set your observer location to see the next 7 days of passes ≥ 10°. The values pass through the URL so the page stays shareable.

No JS? Fill the form by hand. The geolocation button needs JavaScript.